Regional Weather Roundup
Issued by NWS Upton, NY

Current Version | Previous Version | Text Only | Print | Product List | Glossary On
Versions: 1 2 3 4 5 6 7 8 9 10 11 12 13 14 15 16 17 18 19 20 21 22 23 24 25 26 27 28 29 30 31 32 33 34 35 36 37 38 39 40 41 42 43 44 45 46 47 48 49 50
000
ASUS41 KOKX 241105
RWROKX

REGIONAL WEATHER ROUNDUP
NATIONAL WEATHER SERVICE NEW YORK NY
700 AM EDT THU JUL 24 2014

NOTE: "FAIR" INDICATES FEW OR NO CLOUDS BELOW 12,000 FEET WITH NO
SIGNIFICANT WEATHER AND/OR OBSTRUCTIONS TO VISIBILITY.

NYZ071-072-176-178-NJZ106-104-241200-
NEW YORK CITY METRO AREA


CITY           SKY/WX    TMP DP  RH WIND       PRES   REMARKS
CENTRAL PARK   PTSUNNY   72  64  76 VRB5      29.87R
LAGUARDIA APRT PTSUNNY   73  64  73 NW8       29.83R
KENNEDY INTL   PTSUNNY   75  65  70 N13       29.83R
NEWARK/LIBERTY PTSUNNY   73  64  73 NW9       29.84R
BRNX BOT. GARD   N/A     72  64  78 SW5       29.86R
TETERBORO      PTSUNNY   74  63  68 N9        29.83R
$$

NYZ177-179-078>081-241200-
LONG ISLAND NEW YORK

CITY           SKY/WX    TMP DP  RH WIND       PRES   REMARKS
FARMINGDALE    PTSUNNY   72  65  78 N9        29.82R
ISLIP          PTSUNNY   73  66  78 N12       29.80R
SHIRLEY        SUNNY     72  67  84 N8        29.81R
WESTHAMPTON    SUNNY     72  67  84 NW9       29.81S
MONTAUK POINT    N/A     70  68  93 NW5       29.79S
$$

NYZ052-065-067-241200-
HUDSON VALLEY

CITY           SKY/WX    TMP DP  RH WIND       PRES   REMARKS
WHITE PLAINS   PTSUNNY   69  65  86 NW8       29.83R
NEWBURGH       CLOUDY    68  66  94 E7        29.87S
MONTGOMERY     CLOUDY    68  62  81 NW7       29.86R
POUGHKEEPSIE   CLOUDY    69  64  84 N6        29.85R
ALBANY         PTSUNNY   65  60  84 N7        29.89R
$$

NJZ001-105-106-008-010-013-015-019>022-104-241200-
NEW JERSEY

CITY           SKY/WX    TMP DP  RH WIND       PRES   REMARKS
NEWARK/LIBERTY PTSUNNY   73  64  73 NW9       29.84R
TETERBORO      PTSUNNY   74  63  68 N9        29.83R
CALDWELL       PTSUNNY   70  61  73 CALM      29.86R
MORRISTOWN     CLOUDY    72  63  73 N3        29.85R
SOMERVILLE     CLOUDY    70  63  78 NW5       29.84R
LINDEN         CLOUDY    73  65  77 NW5       29.86R
SUSSEX         CLOUDY    70  61  73 VRB3      29.88R
ANDOVER          N/A     67  61  81 N7        29.89R
TRENTON        LGT RAIN  69  64  84 NW7       29.86R
MILLVILLE      LGT RAIN  71  68  90 NW5       29.86R
ATLANTIC CITY  PTSUNNY   71  68  90 NW10      29.84S
WRIGHTSTOWN    CLOUDY    70  66  87 VRB5      29.84R
TOMS RIVER     PTSUNNY   70  64  83 NW7       29.85R
BELMAR         PTSUNNY   70  63  78 NW8       29.84R
$$

PAZ047>061-062-071-241200-
EASTERN PENNSYLVANIA

CITY           SKY/WX    TMP DP  RH WIND       PRES   REMARKS
PHILADELPHIA   CLOUDY    72  61  68 N12       29.87R
ALLENTOWN      CLOUDY    68  60  75 NW9       29.89S
SCRANTON       CLOUDY    65  58  78 N7        29.93S
$$

CTZ002-004>006-009-010-012-RIZ004-006-007-MAZ004-011-015-241200-
SOUTHERN NEW ENGLAND
 IN CT

CITY           SKY/WX    TMP DP  RH WIND       PRES   REMARKS
BRADLEY INTL   PTSUNNY   69  64  84 NW9       29.82R
HARTFORD       PTSUNNY   70  64  81 N8        29.82R
DANBURY        PTSUNNY   68  62  81 N6        29.85S
WTRBRY/OXFORD  PTSUNNY   66  61  82 N10       29.86R
BRIDGEPORT     MOSUNNY   72  66  81 N9        29.81S
MERIDEN        PTSUNNY   70  65  84 N7        29.82R
NEW HAVEN      PTSUNNY   73  66  78 N10       29.80S
CHESTER        FAIR      70  66  88 N8        29.82R
GROTON         MOSUNNY   71  69  93 N7        29.77F
WILLIMANTIC    MOSUNNY   70  66  87 N3        29.81R

 IN RI

CITY           SKY/WX    TMP DP  RH WIND       PRES   REMARKS
PROVIDENCE     PTSUNNY   72  68  87 NW6       29.79R
BLOCK ISLAND   SUNNY     70  66  88 NW6       29.79R
WESTERLY       PTSUNNY   73  68  84 N7        29.79R

 IN MA

CITY           SKY/WX    TMP DP  RH WIND       PRES   REMARKS
BOSTON         PTSUNNY   74  66  76 NW10      29.78S
WORCESTER      CLOUDY    66  63  90 NW8       29.84R
WESTFIELD      PTSUNNY   68  62  81 N9        29.83R
PROVINCETOWN   PTSUNNY   68  66  94 CALM      29.78R
NANTUCKET      FOG       69  68  96 SW5       29.76F VSB 3/4
$$

ANZ330-335-338-340-345-350-353-355-241200-
COASTAL MARINE OBSERVATIONS


STATION/POSITION TIME  SKY/WX   TEMP    WIND        PRES    VSBY  WAVE
                                AIR SEA DIR/SP/G                  HT/PER
                 (UTC)          (F)     (DEG/KT/KT) (MB)    (MI)  (FT/S)
NY HARB ENTRANCE NOT AVBL
4S FIRE IS       NOT AVBL
23SW MTP         1100            71 70              1007.8          2/ 5
HUDSON CANYON    1100            74 74  320/ 14/ 17 1008.6          3/ 5
EXECUTION ROCKS  1100            73 71  330/  6/  8   N/A
WESTERN LI SOUND 1000            73     350/  6/  8   N/A           0
CENTRAL LI SOUND 1000            72 72  340/ 10/ 12   N/A           1
EASTERN LI SOUND 1000            70 67  300/  4/  6   N/A
ROBBINS REEF     1000            72     330/  9/ 11   N/A
$$


>>>>>>>>>>>>>>>>>>>>>>>>>>>> KEY <<<<<<<<<<<<<<<<<<<<<<<<<<<
>                                                          <
>     SKY/WX - SKY CONDITION/PRESENT WEATHER               <
>     TMP    - TEMPERATURE IN FAHRENHEIT                   <
>     DP     - DEWPOINT IN FAHRENHEIT                      <
>     RH     - RELATIVE HUMIDITY IN PERCENT                <
>     WIND   - DIRECTION AND SPEED IN MPH                  <
>     PRES   - MEAN SEA LEVEL PRESSURE IN INCHES OF HG     <
>     WCI    - WIND CHILL INDEX                            <
>     VSB    - VISIBILITY IN MILES                         <
>     HX     - HEAT INDEX                                  <
>     TC     - TEMPERATURE IN CELSIUS                      <
>     VRB    - VARIABLE WIND DIRECTION                     <
>                                                          <
>>>>>>>>>>>>>>>>>>>>>>>>>>>> KEY <<<<<<<<<<<<<<<<<<<<<<<<<<<





USA.gov is the U.S. government's official web portal to all federal, state and local government web resources and services.